Time,TemperatureF,DewpointF,PressureIn,WindDirection,WindDirectionDegrees,WindSpeedMPH,WindSpeedGustMPH,Humidity,HourlyPrecipIn,Conditions,Clouds,dailyrainin,SoftwareType,DateUTC
2013-07-10 00:02:00,79.0,70.0,29.63,SE,146,3.0,3.0,74,0.00,,,0.00,Wunderground v.1.15,2013-07-10 05:02:00,
2013-07-10 00:07:00,79.0,70.4,29.63,SE,124,0.0,3.0,75,0.00,,,0.00,Wunderground v.1.15,2013-07-10 05:07:00,
2013-07-10 00:13:00,78.9,69.9,29.62,SE,140,1.0,3.0,74,0.00,,,0.00,Wunderground v.1.15,2013-07-10 05:13:00,
2013-07-10 00:18:00,78.9,69.9,29.62,SE,136,3.0,3.0,74,0.00,,,0.00,Wunderground v.1.15,2013-07-10 05:18:00,
2013-07-10 00:23:00,78.9,69.9,29.62,SSW,200,1.0,4.0,74,0.00,,,0.00,Wunderground v.1.15,2013-07-10 05:23:00,
2013-07-10 00:28:00,78.8,70.2,29.62,South,186,2.0,4.0,75,0.00,,,0.00,Wunderground v.1.15,2013-07-10 05:28:00,
2013-07-10 00:34:00,78.6,70.0,29.62,SSE,167,1.0,3.0,75,0.00,,,0.00,Wunderground v.1.15,2013-07-10 05:34:00,
2013-07-10 00:39:00,78.4,70.2,29.62,SE,135,2.0,3.0,76,0.00,,,0.00,Wunderground v.1.15,2013-07-10 05:39:00,
2013-07-10 00:44:00,78.2,70.0,29.62,SSW,207,1.0,2.0,76,0.00,,,0.00,Wunderground v.1.15,2013-07-10 05:44:00,
2013-07-10 00:50:00,78.0,69.8,29.61,SSW,200,0.0,1.0,76,0.00,,,0.00,Wunderground v.1.15,2013-07-10 05:50:00,
2013-07-10 00:55:00,77.9,70.1,29.61,SSE,164,2.0,2.0,77,0.00,,,0.00,Wunderground v.1.15,2013-07-10 05:55:00,
2013-07-10 01:01:00,77.8,70.0,29.61,SSW,211,2.0,2.0,77,0.00,,,0.00,Wunderground v.1.15,2013-07-10 06:01:00,
2013-07-10 01:06:00,77.7,69.9,29.61,South,186,0.0,2.0,77,0.00,,,0.00,Wunderground v.1.15,2013-07-10 06:06:00,
2013-07-10 01:11:00,77.5,70.1,29.61,SSE,155,0.0,1.0,78,0.00,,,0.00,Wunderground v.1.15,2013-07-10 06:11:00,
2013-07-10 01:17:00,77.4,70.0,29.61,SW,236,1.0,2.0,78,0.00,,,0.00,Wunderground v.1.15,2013-07-10 06:17:00,
2013-07-10 01:22:00,77.3,69.9,29.61,SE,145,2.0,2.0,78,0.00,,,0.00,Wunderground v.1.15,2013-07-10 06:22:00,
2013-07-10 01:27:00,77.4,69.6,29.61,SE,135,1.0,3.0,77,0.00,,,0.00,Wunderground v.1.15,2013-07-10 06:27:00,
2013-07-10 01:33:00,77.4,69.6,29.60,SE,137,3.0,3.0,77,0.00,,,0.00,Wunderground v.1.15,2013-07-10 06:33:00,
2013-07-10 01:39:00,77.4,69.6,29.60,SE,131,0.0,4.0,77,0.00,,,0.00,Wunderground v.1.15,2013-07-10 06:39:00,
2013-07-10 01:44:00,77.5,69.7,29.61,SSW,206,0.0,3.0,77,0.00,,,0.00,Wunderground v.1.15,2013-07-10 06:44:00,
2013-07-10 01:49:00,77.5,69.7,29.61,SW,217,0.0,3.0,77,0.00,,,0.00,Wunderground v.1.15,2013-07-10 06:49:00,
2013-07-10 01:55:00,77.4,69.6,29.61,WNW,302,1.0,2.0,77,0.00,,,0.00,Wunderground v.1.15,2013-07-10 06:55:00,
2013-07-10 02:00:00,77.4,69.6,29.60,SE,146,1.0,1.0,77,0.00,,,0.00,Wunderground v.1.15,2013-07-10 07:00:00,
2013-07-10 02:05:00,77.4,69.6,29.61,SSW,205,1.0,4.0,77,0.00,,,0.00,Wunderground v.1.15,2013-07-10 07:05:00,
2013-07-10 02:10:00,77.4,69.6,29.61,SE,143,0.0,2.0,77,0.00,,,0.00,Wunderground v.1.15,2013-07-10 07:10:00,
2013-07-10 02:15:00,77.4,69.6,29.60,SSE,150,0.0,5.0,77,0.00,,,0.00,Wunderground v.1.15,2013-07-10 07:15:00,
2013-07-10 02:20:00,77.4,69.6,29.60,SSW,193,2.0,2.0,77,0.00,,,0.00,Wunderground v.1.15,2013-07-10 07:20:00,
2013-07-10 02:25:00,77.4,69.6,29.61,SSE,162,0.0,5.0,77,0.00,,,0.00,Wunderground v.1.15,2013-07-10 07:25:00,
2013-07-10 02:30:00,77.4,69.6,29.61,SSW,211,3.0,4.0,77,0.00,,,0.00,Wunderground v.1.15,2013-07-10 07:30:00,
2013-07-10 02:35:00,77.4,69.6,29.61,SSW,213,2.0,4.0,77,0.00,,,0.00,Wunderground v.1.15,2013-07-10 07:35:00,
2013-07-10 02:40:00,77.4,70.0,29.61,South,191,1.0,2.0,78,0.00,,,0.00,Wunderground v.1.15,2013-07-10 07:40:00,
2013-07-10 02:45:00,77.4,70.0,29.61,SSW,195,2.0,3.0,78,0.00,,,0.00,Wunderground v.1.15,2013-07-10 07:45:00,
2013-07-10 02:50:00,77.4,70.0,29.61,SSE,155,1.0,3.0,78,0.00,,,0.00,Wunderground v.1.15,2013-07-10 07:50:00,
2013-07-10 02:55:00,77.3,69.9,29.61,South,190,3.0,4.0,78,0.00,,,0.00,Wunderground v.1.15,2013-07-10 07:55:00,
2013-07-10 03:00:00,77.3,69.9,29.61,SSE,155,2.0,4.0,78,0.00,,,0.00,Wunderground v.1.15,2013-07-10 08:00:00,
2013-07-10 03:05:00,77.3,69.9,29.60,SSW,207,3.0,4.0,78,0.00,,,0.00,Wunderground v.1.15,2013-07-10 08:05:00,
2013-07-10 03:10:00,77.2,69.8,29.60,South,176,3.0,3.0,78,0.00,,,0.00,Wunderground v.1.15,2013-07-10 08:10:00,
2013-07-10 03:15:00,77.2,70.2,29.60,SSW,198,1.0,4.0,79,0.00,,,0.00,Wunderground v.1.15,2013-07-10 08:15:00,
2013-07-10 03:20:00,77.1,70.1,29.60,SW,221,3.0,5.0,79,0.00,,,0.00,Wunderground v.1.15,2013-07-10 08:20:00,
2013-07-10 03:25:00,77.0,70.0,29.60,SSW,211,3.0,5.0,79,0.00,,,0.00,Wunderground v.1.15,2013-07-10 08:25:00,
2013-07-10 03:30:00,77.0,70.0,29.60,South,191,2.0,5.0,79,0.00,,,0.00,Wunderground v.1.15,2013-07-10 08:30:00,
2013-07-10 03:35:00,76.9,69.9,29.60,SW,224,1.0,5.0,79,0.00,,,0.00,Wunderground v.1.15,2013-07-10 08:35:00,
2013-07-10 03:40:00,76.8,70.2,29.60,SSW,211,3.0,4.0,80,0.00,,,0.00,Wunderground v.1.15,2013-07-10 08:40:00,
2013-07-10 03:45:00,76.8,70.2,29.60,SE,138,1.0,4.0,80,0.00,,,0.00,Wunderground v.1.15,2013-07-10 08:45:00,
2013-07-10 03:50:00,76.8,70.2,29.60,SW,231,1.0,2.0,80,0.00,,,0.00,Wunderground v.1.15,2013-07-10 08:50:00,
2013-07-10 03:55:00,76.7,70.1,29.60,SE,146,0.0,2.0,80,0.00,,,0.00,Wunderground v.1.15,2013-07-10 08:55:00,
2013-07-10 04:00:00,76.6,70.0,29.60,SE,140,2.0,5.0,80,0.00,,,0.00,Wunderground v.1.15,2013-07-10 09:00:00,
2013-07-10 04:05:00,76.5,69.9,29.60,SW,221,0.0,5.0,80,0.00,,,0.00,Wunderground v.1.15,2013-07-10 09:05:00,
2013-07-10 04:10:00,76.4,70.1,29.60,SE,134,0.0,1.0,81,0.00,,,0.00,Wunderground v.1.15,2013-07-10 09:10:00,
2013-07-10 04:16:00,76.3,70.0,29.59,SE,134,1.0,3.0,81,0.00,,,0.00,Wunderground v.1.15,2013-07-10 09:16:00,
2013-07-10 04:21:00,76.1,69.8,29.59,ESE,111,0.0,1.0,81,0.00,,,0.00,Wunderground v.1.15,2013-07-10 09:21:00,
2013-07-10 04:26:00,76.0,70.1,29.59,SSE,160,2.0,2.0,82,0.00,,,0.00,Wunderground v.1.15,2013-07-10 09:26:00,
2013-07-10 04:31:00,75.9,70.0,29.59,SSE,158,1.0,2.0,82,0.00,,,0.00,Wunderground v.1.15,2013-07-10 09:31:00,
2013-07-10 04:36:00,75.9,70.0,29.59,SSE,155,2.0,3.0,82,0.00,,,0.00,Wunderground v.1.15,2013-07-10 09:36:00,
2013-07-10 04:41:00,75.8,69.9,29.59,SSE,158,1.0,4.0,82,0.00,,,0.00,Wunderground v.1.15,2013-07-10 09:41:00,
2013-07-10 04:46:00,75.7,69.8,29.59,SSE,160,2.0,4.0,82,0.00,,,0.00,Wunderground v.1.15,2013-07-10 09:46:00,
2013-07-10 04:51:00,75.7,70.2,29.59,SSE,158,3.0,3.0,83,0.00,,,0.00,Wunderground v.1.15,2013-07-10 09:51:00,
2013-07-10 04:56:00,75.6,70.1,29.59,SE,138,1.0,3.0,83,0.00,,,0.00,Wunderground v.1.15,2013-07-10 09:56:00,
2013-07-10 05:01:00,75.5,70.0,29.59,ESE,110,2.0,4.0,83,0.00,,,0.00,Wunderground v.1.15,2013-07-10 10:01:00,
2013-07-10 05:05:00,75.4,69.9,29.59,SE,139,2.0,4.0,83,0.00,,,0.00,Wunderground v.1.15,2013-07-10 10:05:00,
2013-07-10 05:11:00,75.3,70.1,29.59,SSE,166,3.0,3.0,84,0.00,,,0.00,Wunderground v.1.15,2013-07-10 10:11:00,
2013-07-10 05:16:00,75.2,70.0,29.59,SE,140,2.0,3.0,84,0.00,,,0.00,Wunderground v.1.15,2013-07-10 10:16:00,
2013-07-10 05:21:00,75.1,69.9,29.59,SW,224,1.0,4.0,84,0.00,,,0.00,Wunderground v.1.15,2013-07-10 10:21:00,
2013-07-10 05:26:00,75.0,69.8,29.58,SSW,193,2.0,5.0,84,0.00,,,0.00,Wunderground v.1.15,2013-07-10 10:26:00,
2013-07-10 05:31:00,74.9,69.7,29.58,SSE,158,3.0,3.0,84,0.00,,,0.00,Wunderground v.1.15,2013-07-10 10:31:00,
2013-07-10 05:36:00,74.8,70.0,29.59,SE,138,1.0,4.0,85,0.00,,,0.00,Wunderground v.1.15,2013-07-10 10:36:00,
2013-07-10 05:41:00,74.7,69.9,29.59,SSW,212,2.0,2.0,85,0.00,,,0.00,Wunderground v.1.15,2013-07-10 10:41:00,
2013-07-10 05:46:00,74.7,69.9,29.59,SSE,148,1.0,5.0,85,0.00,,,0.00,Wunderground v.1.15,2013-07-10 10:46:00,
2013-07-10 05:51:00,74.6,69.8,29.58,South,177,2.0,3.0,85,0.00,,,0.00,Wunderground v.1.15,2013-07-10 10:51:00,
2013-07-10 05:56:00,74.6,69.8,29.58,SSW,205,2.0,4.0,85,0.00,,,0.00,Wunderground v.1.15,2013-07-10 10:56:00,
2013-07-10 06:01:00,74.6,69.8,29.58,SSE,150,3.0,5.0,85,0.00,,,0.00,Wunderground v.1.15,2013-07-10 11:01:00,
2013-07-10 06:06:00,74.6,69.8,29.58,SW,228,1.0,5.0,85,0.00,,,0.00,Wunderground v.1.15,2013-07-10 11:06:00,
2013-07-10 06:11:00,74.7,69.9,29.58,SW,221,0.0,2.0,85,0.00,,,0.00,Wunderground v.1.15,2013-07-10 11:11:00,
2013-07-10 06:16:00,74.8,70.0,29.58,SE,138,0.0,2.0,85,0.00,,,0.00,Wunderground v.1.15,2013-07-10 11:16:00,
2013-07-10 06:21:00,75.0,70.2,29.58,South,170,2.0,3.0,85,0.00,,,0.00,Wunderground v.1.15,2013-07-10 11:21:00,
2013-07-10 06:26:00,75.2,70.0,29.59,SE,139,1.0,5.0,84,0.00,,,0.00,Wunderground v.1.15,2013-07-10 11:26:00,
2013-07-10 06:31:00,75.6,70.1,29.59,SSW,212,1.0,4.0,83,0.00,,,0.00,Wunderground v.1.15,2013-07-10 11:31:00,
2013-07-10 06:36:00,75.8,70.3,29.59,SE,138,2.0,4.0,83,0.00,,,0.00,Wunderground v.1.15,2013-07-10 11:36:00,
2013-07-10 06:41:00,76.1,70.6,29.59,ESE,111,2.0,5.0,83,0.00,,,0.00,Wunderground v.1.15,2013-07-10 11:41:00,
2013-07-10 06:46:00,76.2,70.3,29.59,SSE,167,3.0,6.0,82,0.00,,,0.00,Wunderground v.1.15,2013-07-10 11:46:00,
2013-07-10 06:51:00,76.2,70.3,29.60,SW,225,1.0,3.0,82,0.00,,,0.00,Wunderground v.1.15,2013-07-10 11:51:00,
2013-07-10 06:56:00,76.1,70.2,29.60,SW,226,1.0,5.0,82,0.00,,,0.00,Wunderground v.1.15,2013-07-10 11:56:00,
2013-07-10 07:01:00,76.1,70.2,29.60,SSW,212,0.0,5.0,82,0.00,,,0.00,Wunderground v.1.15,2013-07-10 12:01:00,
2013-07-10 07:06:00,76.1,70.2,29.61,SSW,200,3.0,10.0,82,0.00,,,0.00,Wunderground v.1.15,2013-07-10 12:06:00,
2013-07-10 07:11:00,76.3,70.4,29.61,SW,229,3.0,6.0,82,0.00,,,0.00,Wunderground v.1.15,2013-07-10 12:11:00,
2013-07-10 07:16:00,76.4,70.1,29.62,South,169,5.0,6.0,81,0.00,,,0.00,Wunderground v.1.15,2013-07-10 12:16:00,
2013-07-10 07:22:00,76.5,70.2,29.62,South,174,2.0,5.0,81,0.00,,,0.00,Wunderground v.1.15,2013-07-10 12:22:00,
2013-07-10 07:27:00,76.6,70.3,29.62,SSW,195,5.0,6.0,81,0.00,,,0.00,Wunderground v.1.15,2013-07-10 12:27:00,
2013-07-10 07:32:00,76.7,70.4,29.61,SSW,209,5.0,9.0,81,0.00,,,0.00,Wunderground v.1.15,2013-07-10 12:32:00,
2013-07-10 07:37:00,76.6,70.3,29.61,SSW,208,5.0,9.0,81,0.00,,,0.00,Wunderground v.1.15,2013-07-10 12:37:00,
2013-07-10 07:42:00,76.8,70.5,29.60,WSW,242,3.0,4.0,81,0.00,,,0.00,Wunderground v.1.15,2013-07-10 12:42:00,
2013-07-10 07:47:00,77.0,70.4,29.60,SW,219,3.0,8.0,80,0.00,,,0.00,Wunderground v.1.15,2013-07-10 12:47:00,
2013-07-10 07:52:00,77.1,70.5,29.60,SSE,159,2.0,6.0,80,0.00,,,0.00,Wunderground v.1.15,2013-07-10 12:52:00,
2013-07-10 07:57:00,77.4,70.7,29.61,WSW,245,1.0,8.0,80,0.00,,,0.00,Wunderground v.1.15,2013-07-10 12:57:00,
2013-07-10 08:02:00,77.4,70.7,29.61,SSW,195,4.0,7.0,80,0.00,,,0.00,Wunderground v.1.15,2013-07-10 13:02:00,
2013-07-10 08:07:00,77.7,70.7,29.61,SW,233,2.0,9.0,79,0.00,,,0.00,Wunderground v.1.15,2013-07-10 13:07:00,
2013-07-10 08:12:00,77.8,70.8,29.61,SW,236,4.0,6.0,79,0.00,,,0.00,Wunderground v.1.15,2013-07-10 13:12:00,
2013-07-10 08:17:00,77.7,71.0,29.61,ESE,112,4.0,8.0,80,0.00,,,0.00,Wunderground v.1.15,2013-07-10 13:17:00,
2013-07-10 08:22:00,77.5,70.8,29.61,SSW,211,4.0,7.0,80,0.00,,,0.00,Wunderground v.1.15,2013-07-10 13:22:00,
2013-07-10 08:27:00,77.5,70.8,29.60,SSW,208,4.0,8.0,80,0.00,,,0.00,Wunderground v.1.15,2013-07-10 13:27:00,
2013-07-10 08:32:00,77.5,70.8,29.60,SW,217,1.0,6.0,80,0.00,,,0.00,Wunderground v.1.15,2013-07-10 13:32:00,
2013-07-10 08:37:00,77.6,70.9,29.60,SW,236,5.0,6.0,80,0.00,,,0.00,Wunderground v.1.15,2013-07-10 13:37:00,
2013-07-10 08:42:00,77.9,70.9,29.60,South,171,1.0,8.0,79,0.00,,,0.00,Wunderground v.1.15,2013-07-10 13:42:00,
2013-07-10 08:47:00,78.1,71.1,29.60,SW,233,0.0,8.0,79,0.00,,,0.00,Wunderground v.1.15,2013-07-10 13:47:00,
2013-07-10 08:52:00,78.4,71.3,29.61,SSE,150,3.0,5.0,79,0.00,,,0.00,Wunderground v.1.15,2013-07-10 13:52:00,
2013-07-10 08:57:00,78.7,71.6,29.61,WSW,239,1.0,5.0,79,0.00,,,0.00,Wunderground v.1.15,2013-07-10 13:57:00,
2013-07-10 09:02:00,79.1,71.6,29.61,SW,235,2.0,3.0,78,0.00,,,0.00,Wunderground v.1.15,2013-07-10 14:02:00,
2013-07-10 09:07:00,79.1,71.3,29.61,South,173,5.0,7.0,77,0.00,,,0.00,Wunderground v.1.15,2013-07-10 14:07:00,
2013-07-10 09:12:00,79.1,71.6,29.61,SW,227,1.0,7.0,78,0.00,,,0.00,Wunderground v.1.15,2013-07-10 14:12:00,
2013-07-10 09:17:00,79.4,71.9,29.60,WSW,239,2.0,7.0,78,0.00,,,0.00,Wunderground v.1.15,2013-07-10 14:17:00,
2013-07-10 09:22:00,79.5,71.7,29.60,SW,224,5.0,5.0,77,0.00,,,0.00,Wunderground v.1.15,2013-07-10 14:22:00,
2013-07-10 09:27:00,79.6,71.8,29.59,WSW,238,3.0,6.0,77,0.00,,,0.00,Wunderground v.1.15,2013-07-10 14:27:00,
2013-07-10 09:32:00,79.8,71.9,29.59,ESE,111,1.0,4.0,77,0.00,,,0.00,Wunderground v.1.15,2013-07-10 14:32:00,
2013-07-10 09:37:00,80.2,72.3,29.59,SW,215,4.0,5.0,77,0.00,,,0.00,Wunderground v.1.15,2013-07-10 14:37:00,
2013-07-10 09:42:00,80.8,72.5,29.58,SW,221,5.0,5.0,76,0.00,,,0.00,Wunderground v.1.15,2013-07-10 14:42:00,
2013-07-10 09:47:00,80.9,72.6,29.59,SW,218,5.0,7.0,76,0.00,,,0.00,Wunderground v.1.15,2013-07-10 14:47:00,
2013-07-10 09:52:00,81.3,72.6,29.59,SE,136,1.0,5.0,75,0.00,,,0.00,Wunderground v.1.15,2013-07-10 14:52:00,
2013-07-10 09:57:00,81.7,72.6,29.59,SE,134,3.0,8.0,74,0.00,,,0.00,Wunderground v.1.15,2013-07-10 14:57:00,
2013-07-10 10:02:00,81.8,72.7,29.59,SW,224,6.0,8.0,74,0.00,,,0.00,Wunderground v.1.15,2013-07-10 15:02:00,
2013-07-10 10:07:00,81.8,72.7,29.59,SW,228,2.0,9.0,74,0.00,,,0.00,Wunderground v.1.15,2013-07-10 15:07:00,
2013-07-10 10:12:00,81.7,72.6,29.59,WSW,242,4.0,6.0,74,0.00,,,0.00,Wunderground v.1.15,2013-07-10 15:12:00,
2013-07-10 10:17:00,81.6,72.5,29.59,SSW,203,0.0,7.0,74,0.00,,,0.00,Wunderground v.1.15,2013-07-10 15:17:00,
2013-07-10 10:22:00,81.7,72.6,29.59,SW,218,0.0,5.0,74,0.00,,,0.00,Wunderground v.1.15,2013-07-10 15:22:00,
2013-07-10 10:27:00,82.2,73.1,29.59,SSW,204,4.0,7.0,74,0.00,,,0.00,Wunderground v.1.15,2013-07-10 15:27:00,
2013-07-10 10:32:00,82.4,72.9,29.59,WSW,257,4.0,6.0,73,0.00,,,0.00,Wunderground v.1.15,2013-07-10 15:32:00,
2013-07-10 10:37:00,82.8,73.3,29.59,West,262,1.0,7.0,73,0.00,,,0.00,Wunderground v.1.15,2013-07-10 15:37:00,
2013-07-10 10:42:00,83.3,73.3,29.59,WSW,245,2.0,5.0,72,0.00,,,0.00,Wunderground v.1.15,2013-07-10 15:42:00,
2013-07-10 10:47:00,83.4,73.0,29.59,WSW,256,3.0,9.0,71,0.00,,,0.00,Wunderground v.1.15,2013-07-10 15:47:00,
2013-07-10 10:53:00,83.7,73.3,29.60,WNW,295,4.0,9.0,71,0.00,,,0.00,Wunderground v.1.15,2013-07-10 15:53:00,
2013-07-10 10:58:00,83.7,73.3,29.60,West,271,1.0,11.0,71,0.00,,,0.00,Wunderground v.1.15,2013-07-10 15:58:00,
2013-07-10 11:03:00,84.1,72.8,29.60,WNW,283,5.0,12.0,69,0.00,,,0.00,Wunderground v.1.15,2013-07-10 16:03:00,
2013-07-10 11:08:00,84.2,72.5,29.60,SW,233,9.0,12.0,68,0.00,,,0.00,Wunderground v.1.15,2013-07-10 16:08:00,
2013-07-10 11:13:00,84.2,72.9,29.60,SW,225,0.0,5.0,69,0.00,,,0.00,Wunderground v.1.15,2013-07-10 16:13:00,
2013-07-10 11:18:00,83.9,71.3,29.61,West,264,7.0,13.0,66,0.00,,,0.00,Wunderground v.1.15,2013-07-10 16:18:00,
2013-07-10 11:23:00,83.6,72.3,29.61,SW,224,7.0,12.0,69,0.00,,,0.00,Wunderground v.1.15,2013-07-10 16:23:00,
2013-07-10 11:28:00,83.7,72.0,29.61,WNW,301,5.0,12.0,68,0.00,,,0.00,Wunderground v.1.15,2013-07-10 16:28:00,
2013-07-10 11:33:00,84.0,71.9,29.61,West,259,3.0,7.0,67,0.00,,,0.00,Wunderground v.1.15,2013-07-10 16:33:00,
2013-07-10 11:38:00,83.6,71.9,29.61,West,259,6.0,10.0,68,0.00,,,0.00,Wunderground v.1.15,2013-07-10 16:38:00,
2013-07-10 11:43:00,83.9,71.8,29.61,WSW,255,6.0,7.0,67,0.00,,,0.00,Wunderground v.1.15,2013-07-10 16:43:00,
2013-07-10 11:48:00,84.2,71.6,29.62,West,263,8.0,10.0,66,0.00,,,0.00,Wunderground v.1.15,2013-07-10 16:48:00,
2013-07-10 11:53:00,83.4,71.7,29.62,West,261,5.0,8.0,68,0.00,,,0.00,Wunderground v.1.15,2013-07-10 16:53:00,
2013-07-10 11:58:00,83.1,71.9,29.61,West,265,3.0,8.0,69,0.00,,,0.00,Wunderground v.1.15,2013-07-10 16:58:00,
2013-07-10 12:03:00,83.1,71.4,29.61,WSW,252,4.0,8.0,68,0.00,,,0.00,Wunderground v.1.15,2013-07-10 17:03:00,
2013-07-10 12:08:00,83.6,71.9,29.61,WNW,295,4.0,8.0,68,0.00,,,0.00,Wunderground v.1.15,2013-07-10 17:08:00,
2013-07-10 12:13:00,83.6,71.5,29.61,NW,304,4.0,7.0,67,0.00,,,0.00,Wunderground v.1.15,2013-07-10 17:13:00,
2013-07-10 12:18:00,83.3,70.8,29.62,West,271,7.0,10.0,66,0.00,,,0.00,Wunderground v.1.15,2013-07-10 17:18:00,
2013-07-10 12:23:00,82.8,71.2,29.62,West,271,1.0,8.0,68,0.00,,,0.00,Wunderground v.1.15,2013-07-10 17:23:00,
2013-07-10 12:28:00,82.7,71.5,29.62,West,269,2.0,8.0,69,0.00,,,0.00,Wunderground v.1.15,2013-07-10 17:28:00,
2013-07-10 12:33:00,82.4,71.6,29.62,NW,325,2.0,7.0,70,0.00,,,0.00,Wunderground v.1.15,2013-07-10 17:33:00,
2013-07-10 12:38:00,82.2,71.4,29.62,West,277,3.0,9.0,70,0.00,,,0.00,Wunderground v.1.15,2013-07-10 17:38:00,
2013-07-10 12:43:00,82.0,71.7,29.61,West,278,2.0,5.0,71,0.00,,,0.00,Wunderground v.1.15,2013-07-10 17:43:00,
2013-07-10 12:48:00,82.3,71.5,29.61,WSW,245,2.0,5.0,70,0.00,,,0.00,Wunderground v.1.15,2013-07-10 17:48:00,
2013-07-10 12:53:00,82.6,71.8,29.60,NNE,15,5.0,7.0,70,0.00,,,0.00,Wunderground v.1.15,2013-07-10 17:53:00,
2013-07-10 12:58:00,82.7,71.5,29.61,WNW,298,2.0,8.0,69,0.00,,,0.00,Wunderground v.1.15,2013-07-10 17:58:00,
2013-07-10 13:03:00,83.0,70.5,29.60,SW,236,0.0,8.0,66,0.00,,,0.00,Wunderground v.1.15,2013-07-10 18:03:00,
2013-07-10 13:08:00,83.5,70.5,29.60,WNW,286,4.0,8.0,65,0.00,,,0.00,Wunderground v.1.15,2013-07-10 18:08:00,
2013-07-10 13:13:00,83.2,70.2,29.60,WSW,248,2.0,5.0,65,0.00,,,0.00,Wunderground v.1.15,2013-07-10 18:13:00,
2013-07-10 13:18:00,83.6,71.9,29.59,NW,325,3.0,6.0,68,0.00,,,0.00,Wunderground v.1.15,2013-07-10 18:18:00,
2013-07-10 13:23:00,82.7,72.3,29.58,North,1,2.0,5.0,71,0.00,,,0.00,Wunderground v.1.15,2013-07-10 18:23:00,
2013-07-10 13:28:00,82.6,72.2,29.59,NNE,29,2.0,5.0,71,0.00,,,0.00,Wunderground v.1.15,2013-07-10 18:28:00,
2013-07-10 13:33:00,82.8,72.4,29.58,North,352,2.0,3.0,71,0.00,,,0.00,Wunderground v.1.15,2013-07-10 18:33:00,
2013-07-10 13:38:00,82.7,71.5,29.58,NNE,30,3.0,5.0,69,0.00,,,0.00,Wunderground v.1.15,2013-07-10 18:38:00,
2013-07-10 13:43:00,82.5,70.9,29.58,NNW,328,3.0,8.0,68,0.00,,,0.00,Wunderground v.1.15,2013-07-10 18:43:00,
2013-07-10 13:48:00,82.4,69.4,29.58,NNE,25,4.0,8.0,65,0.00,,,0.00,Wunderground v.1.15,2013-07-10 18:48:00,
2013-07-10 13:53:00,82.2,69.7,29.58,North,9,3.0,6.0,66,0.00,,,0.00,Wunderground v.1.15,2013-07-10 18:53:00,
2013-07-10 13:58:00,82.1,70.1,29.58,NNE,25,4.0,8.0,67,0.00,,,0.00,Wunderground v.1.15,2013-07-10 18:58:00,
2013-07-10 14:03:00,82.4,69.0,29.59,NNE,23,1.0,7.0,64,0.00,,,0.00,Wunderground v.1.15,2013-07-10 19:03:00,
2013-07-10 14:08:00,82.6,69.2,29.58,North,349,3.0,9.0,64,0.00,,,0.00,Wunderground v.1.15,2013-07-10 19:08:00,
2013-07-10 14:13:00,83.2,71.1,29.57,North,7,2.0,6.0,67,0.00,,,0.00,Wunderground v.1.15,2013-07-10 19:13:00,
2013-07-10 14:18:00,83.0,70.9,29.56,NE,37,3.0,6.0,67,0.00,,,0.00,Wunderground v.1.15,2013-07-10 19:18:00,
2013-07-10 14:23:00,82.5,71.3,29.56,NNE,23,3.0,7.0,69,0.00,,,0.00,Wunderground v.1.15,2013-07-10 19:23:00,
2013-07-10 14:28:00,82.6,70.5,29.56,NNE,18,4.0,7.0,67,0.00,,,0.00,Wunderground v.1.15,2013-07-10 19:28:00,
2013-07-10 14:33:00,82.9,70.8,29.56,North,1,4.0,5.0,67,0.00,,,0.00,Wunderground v.1.15,2013-07-10 19:33:00,
2013-07-10 14:38:00,82.9,70.4,29.55,North,1,1.0,5.0,66,0.00,,,0.00,Wunderground v.1.15,2013-07-10 19:38:00,
2013-07-10 14:43:00,83.4,68.5,29.55,NE,53,2.0,4.0,61,0.00,,,0.00,Wunderground v.1.15,2013-07-10 19:43:00,
2013-07-10 14:48:00,83.7,67.8,29.55,NNW,345,3.0,5.0,59,0.00,,,0.00,Wunderground v.1.15,2013-07-10 19:48:00,
2013-07-10 14:49:00,83.7,67.8,29.55,NNE,15,2.0,5.0,59,0.00,,,0.00,Wunderground v.1.15,2013-07-10 19:49:00,
2013-07-10 14:54:00,83.7,70.7,29.54,NNW,327,2.0,6.0,65,0.00,,,0.00,Wunderground v.1.15,2013-07-10 19:54:00,
2013-07-10 14:59:00,83.8,68.9,29.54,NW,310,7.0,7.0,61,0.00,,,0.00,Wunderground v.1.15,2013-07-10 19:59:00,
2013-07-10 15:04:00,84.1,70.1,29.53,WNW,301,3.0,8.0,63,0.00,,,0.00,Wunderground v.1.15,2013-07-10 20:04:00,
2013-07-10 15:09:00,84.1,69.7,29.53,NW,316,6.0,8.0,62,0.00,,,0.00,Wunderground v.1.15,2013-07-10 20:09:00,
2013-07-10 15:14:00,84.7,70.7,29.52,SW,226,2.0,7.0,63,0.00,,,0.00,Wunderground v.1.15,2013-07-10 20:14:00,
2013-07-10 15:19:00,84.9,70.9,29.53,NW,311,2.0,7.0,63,0.00,,,0.00,Wunderground v.1.15,2013-07-10 20:19:00,
2013-07-10 15:24:00,85.4,71.4,29.53,North,351,5.0,6.0,63,0.00,,,0.00,Wunderground v.1.15,2013-07-10 20:24:00,
2013-07-10 15:29:00,85.7,70.2,29.53,NW,313,4.0,8.0,60,0.00,,,0.00,Wunderground v.1.15,2013-07-10 20:29:00,
2013-07-10 15:34:00,86.2,71.2,29.53,SW,236,2.0,10.0,61,0.00,,,0.00,Wunderground v.1.15,2013-07-10 20:34:00,
2013-07-10 15:39:00,85.3,70.3,29.53,WNW,294,7.0,10.0,61,0.00,,,0.00,Wunderground v.1.15,2013-07-10 20:39:00,
2013-07-10 15:44:00,84.5,70.5,29.53,WNW,295,7.0,9.0,63,0.00,,,0.00,Wunderground v.1.15,2013-07-10 20:44:00,
2013-07-10 15:49:00,84.0,69.6,29.53,West,260,8.0,12.0,62,0.00,,,0.00,Wunderground v.1.15,2013-07-10 20:49:00,
2013-07-10 15:54:00,84.3,69.4,29.52,WNW,295,4.0,13.0,61,0.00,,,0.00,Wunderground v.1.15,2013-07-10 20:54:00,
2013-07-10 15:59:00,84.7,70.7,29.53,NW,314,8.0,15.0,63,0.00,,,0.00,Wunderground v.1.15,2013-07-10 20:59:00,
2013-07-10 16:04:00,84.4,71.3,29.53,NW,305,6.0,9.0,65,0.00,,,0.00,Wunderground v.1.15,2013-07-10 21:04:00,
2013-07-10 16:09:00,84.2,71.2,29.53,West,278,4.0,11.0,65,0.00,,,0.00,Wunderground v.1.15,2013-07-10 21:09:00,
2013-07-10 16:14:00,84.3,71.2,29.52,WNW,293,4.0,11.0,65,0.00,,,0.00,Wunderground v.1.15,2013-07-10 21:14:00,
2013-07-10 16:19:00,84.9,71.8,29.52,NW,321,4.0,11.0,65,0.00,,,0.00,Wunderground v.1.15,2013-07-10 21:19:00,
2013-07-10 16:24:00,84.9,72.3,29.52,WNW,283,6.0,9.0,66,0.00,,,0.00,Wunderground v.1.15,2013-07-10 21:24:00,
2013-07-10 16:29:00,84.8,72.2,29.52,NW,309,5.0,9.0,66,0.00,,,0.00,Wunderground v.1.15,2013-07-10 21:29:00,
2013-07-10 16:34:00,84.9,70.9,29.51,WNW,301,6.0,11.0,63,0.00,,,0.00,Wunderground v.1.15,2013-07-10 21:34:00,
2013-07-10 16:39:00,84.8,70.3,29.51,West,271,3.0,11.0,62,0.00,,,0.00,Wunderground v.1.15,2013-07-10 21:39:00,
2013-07-10 16:44:00,84.5,69.1,29.51,NNW,343,5.0,10.0,60,0.00,,,0.00,Wunderground v.1.15,2013-07-10 21:44:00,
2013-07-10 16:49:00,84.9,67.5,29.52,NW,308,2.0,16.0,56,0.00,,,0.00,Wunderground v.1.15,2013-07-10 21:49:00,
2013-07-10 16:54:00,84.6,67.7,29.52,West,277,2.0,12.0,57,0.00,,,0.00,Wunderground v.1.15,2013-07-10 21:54:00,
2013-07-10 16:59:00,84.5,67.6,29.52,West,269,2.0,12.0,57,0.00,,,0.00,Wunderground v.1.15,2013-07-10 21:59:00,
2013-07-10 17:04:00,84.6,67.7,29.52,WSW,256,3.0,8.0,57,0.00,,,0.00,Wunderground v.1.15,2013-07-10 22:04:00,
2013-07-10 17:09:00,84.9,68.0,29.53,West,270,4.0,11.0,57,0.00,,,0.00,Wunderground v.1.15,2013-07-10 22:09:00,
2013-07-10 17:14:00,84.7,68.3,29.53,WSW,255,2.0,9.0,58,0.00,,,0.00,Wunderground v.1.15,2013-07-10 22:14:00,
2013-07-10 17:19:00,84.5,68.6,29.53,WNW,288,1.0,9.0,59,0.00,,,0.00,Wunderground v.1.15,2013-07-10 22:19:00,
2013-07-10 17:24:00,84.7,69.3,29.53,NW,314,4.0,7.0,60,0.00,,,0.00,Wunderground v.1.15,2013-07-10 22:24:00,
2013-07-10 17:29:00,84.6,69.2,29.53,WNW,301,3.0,7.0,60,0.00,,,0.00,Wunderground v.1.15,2013-07-10 22:29:00,
2013-07-10 17:34:00,84.5,69.1,29.53,WNW,284,4.0,12.0,60,0.00,,,0.00,Wunderground v.1.15,2013-07-10 22:34:00,
2013-07-10 17:39:00,84.7,69.8,29.53,WSW,239,2.0,12.0,61,0.00,,,0.00,Wunderground v.1.15,2013-07-10 22:39:00,
2013-07-10 17:44:00,84.5,69.1,29.53,WNW,283,6.0,7.0,60,0.00,,,0.00,Wunderground v.1.15,2013-07-10 22:44:00,
2013-07-10 17:49:00,84.3,69.4,29.53,WNW,292,4.0,7.0,61,0.00,,,0.00,Wunderground v.1.15,2013-07-10 22:49:00,
2013-07-10 17:54:00,84.0,69.1,29.53,NNE,26,5.0,11.0,61,0.00,,,0.00,Wunderground v.1.15,2013-07-10 22:54:00,
2013-07-10 17:59:00,84.1,69.2,29.53,WNW,288,4.0,11.0,61,0.00,,,0.00,Wunderground v.1.15,2013-07-10 22:59:00,
2013-07-10 18:04:00,83.9,68.5,29.52,NW,316,5.0,7.0,60,0.00,,,0.00,Wunderground v.1.15,2013-07-10 23:04:00,
2013-07-10 18:09:00,83.9,68.5,29.52,West,276,4.0,8.0,60,0.00,,,0.00,Wunderground v.1.15,2013-07-10 23:09:00,
2013-07-10 18:14:00,84.0,68.6,29.53,West,270,6.0,7.0,60,0.00,,,0.00,Wunderground v.1.15,2013-07-10 23:14:00,
2013-07-10 18:19:00,83.8,68.9,29.53,West,262,4.0,8.0,61,0.00,,,0.00,Wunderground v.1.15,2013-07-10 23:19:00,
2013-07-10 18:24:00,83.5,69.1,29.52,West,271,4.0,7.0,62,0.00,,,0.00,Wunderground v.1.15,2013-07-10 23:24:00,
2013-07-10 18:29:00,83.7,69.8,29.53,WNW,293,3.0,7.0,63,0.00,,,0.00,Wunderground v.1.15,2013-07-10 23:29:00,
2013-07-10 18:34:00,83.7,69.8,29.53,NW,307,2.0,7.0,63,0.00,,,0.00,Wunderground v.1.15,2013-07-10 23:34:00,
2013-07-10 18:39:00,83.4,69.9,29.53,NW,311,2.0,7.0,64,0.00,,,0.00,Wunderground v.1.15,2013-07-10 23:39:00,
2013-07-10 18:44:00,83.2,69.8,29.53,NNW,337,2.0,10.0,64,0.00,,,0.00,Wunderground v.1.15,2013-07-10 23:44:00,
2013-07-10 18:49:00,83.1,69.2,29.52,West,274,5.0,10.0,63,0.00,,,0.00,Wunderground v.1.15,2013-07-10 23:49:00,
2013-07-10 18:54:00,82.9,69.5,29.52,WNW,288,5.0,7.0,64,0.00,,,0.00,Wunderground v.1.15,2013-07-10 23:54:00,
2013-07-10 18:59:00,82.9,69.5,29.53,WNW,302,2.0,8.0,64,0.00,,,0.00,Wunderground v.1.15,2013-07-10 23:59:00,
2013-07-10 19:04:00,82.8,69.4,29.53,WNW,300,6.0,7.0,64,0.00,,,0.00,Wunderground v.1.15,2013-07-11 00:04:00,
2013-07-10 19:09:00,82.6,68.7,29.53,NNW,330,2.0,7.0,63,0.00,,,0.00,Wunderground v.1.15,2013-07-11 00:09:00,
2013-07-10 19:14:00,82.8,68.9,29.53,WSW,257,6.0,6.0,63,0.00,,,0.00,Wunderground v.1.15,2013-07-11 00:14:00,
2013-07-10 19:19:00,82.7,68.8,29.53,West,278,4.0,8.0,63,0.00,,,0.00,Wunderground v.1.15,2013-07-11 00:19:00,
2013-07-10 19:24:00,82.6,68.7,29.53,WSW,240,0.0,5.0,63,0.00,,,0.00,Wunderground v.1.15,2013-07-11 00:24:00,
2013-07-10 19:29:00,82.4,68.5,29.53,West,260,3.0,5.0,63,0.00,,,0.00,Wunderground v.1.15,2013-07-11 00:29:00,
2013-07-10 19:34:00,82.0,68.6,29.53,West,274,3.0,4.0,64,0.00,,,0.00,Wunderground v.1.15,2013-07-11 00:34:00,
2013-07-10 19:39:00,81.6,68.7,29.54,West,272,3.0,7.0,65,0.00,,,0.00,Wunderground v.1.15,2013-07-11 00:39:00,
2013-07-10 19:44:00,81.4,68.5,29.54,West,269,4.0,4.0,65,0.00,,,0.00,Wunderground v.1.15,2013-07-11 00:44:00,
2013-07-10 19:49:00,81.3,68.4,29.54,West,271,1.0,4.0,65,0.00,,,0.00,Wunderground v.1.15,2013-07-11 00:49:00,
2013-07-10 19:54:00,81.3,68.9,29.54,West,264,0.0,3.0,66,0.00,,,0.00,Wunderground v.1.15,2013-07-11 00:54:00,
2013-07-10 19:59:00,81.3,68.9,29.55,WNW,290,0.0,3.0,66,0.00,,,0.00,Wunderground v.1.15,2013-07-11 00:59:00,
2013-07-10 20:04:00,81.3,68.9,29.55,West,278,1.0,1.0,66,0.00,,,0.00,Wunderground v.1.15,2013-07-11 01:04:00,
2013-07-10 20:09:00,81.2,68.8,29.55,West,274,0.0,2.0,66,0.00,,,0.00,Wunderground v.1.15,2013-07-11 01:09:00,
2013-07-10 20:10:00,81.2,68.8,29.55,West,274,1.0,2.0,66,0.00,,,0.00,Wunderground v.1.15,2013-07-11 01:10:00,
2013-07-10 20:15:00,81.2,68.8,29.54,NW,325,1.0,2.0,66,0.00,,,0.00,Wunderground v.1.15,2013-07-11 01:15:00,
2013-07-10 20:20:00,81.2,69.2,29.55,WNW,302,4.0,4.0,67,0.00,,,0.00,Wunderground v.1.15,2013-07-11 01:20:00,
2013-07-10 20:25:00,81.0,69.0,29.55,WNW,294,0.0,4.0,67,0.00,,,0.00,Wunderground v.1.15,2013-07-11 01:25:00,
2013-07-10 20:30:00,80.9,68.9,29.55,NW,316,2.0,4.0,67,0.00,,,0.00,Wunderground v.1.15,2013-07-11 01:30:00,
2013-07-10 20:35:00,80.9,69.3,29.55,NW,313,2.0,2.0,68,0.00,,,0.00,Wunderground v.1.15,2013-07-11 01:35:00,
2013-07-10 20:40:00,80.9,69.3,29.56,WNW,289,2.0,2.0,68,0.00,,,0.00,Wunderground v.1.15,2013-07-11 01:40:00,
2013-07-10 20:45:00,80.8,69.2,29.56,West,271,0.0,2.0,68,0.00,,,0.00,Wunderground v.1.15,2013-07-11 01:45:00,
2013-07-10 20:50:00,80.7,69.2,29.56,WNW,291,1.0,1.0,68,0.00,,,0.00,Wunderground v.1.15,2013-07-11 01:50:00,
2013-07-10 20:55:00,80.5,69.4,29.56,NW,304,1.0,4.0,69,0.00,,,0.00,Wunderground v.1.15,2013-07-11 01:55:00,
2013-07-10 21:00:00,80.4,69.7,29.56,NW,305,3.0,3.0,70,0.00,,,0.00,Wunderground v.1.15,2013-07-11 02:00:00,
2013-07-10 21:05:00,80.2,69.5,29.56,NW,312,1.0,4.0,70,0.00,,,0.00,Wunderground v.1.15,2013-07-11 02:05:00,
2013-07-10 21:10:00,80.2,69.9,29.56,NNW,327,1.0,2.0,71,0.00,,,0.00,Wunderground v.1.15,2013-07-11 02:10:00,
2013-07-10 21:15:00,80.0,70.6,29.56,NNW,333,4.0,4.0,73,0.00,,,0.00,Wunderground v.1.15,2013-07-11 02:15:00,
2013-07-10 21:20:00,79.9,70.5,29.56,WNW,298,2.0,2.0,73,0.00,,,0.00,Wunderground v.1.15,2013-07-11 02:20:00,
2013-07-10 21:25:00,79.8,70.4,29.56,WNW,303,1.0,2.0,73,0.00,,,0.00,Wunderground v.1.15,2013-07-11 02:25:00,
2013-07-10 21:30:00,79.7,70.3,29.56,SW,214,0.0,1.0,73,0.00,,,0.00,Wunderground v.1.15,2013-07-11 02:30:00,
2013-07-10 21:35:00,79.4,70.0,29.56,SW,224,0.0,2.0,73,0.00,,,0.00,Wunderground v.1.15,2013-07-11 02:35:00,
2013-07-10 21:40:00,79.1,70.1,29.56,SW,221,1.0,1.0,74,0.00,,,0.00,Wunderground v.1.15,2013-07-11 02:40:00,
2013-07-10 21:45:00,78.9,70.3,29.56,SW,229,0.0,1.0,75,0.00,,,0.00,Wunderground v.1.15,2013-07-11 02:45:00,
2013-07-10 21:50:00,78.7,70.1,29.56,SW,228,0.0,0.0,75,0.00,,,0.00,Wunderground v.1.15,2013-07-11 02:50:00,
2013-07-10 21:55:00,78.6,70.0,29.56,SW,228,0.0,0.0,75,0.00,,,0.00,Wunderground v.1.15,2013-07-11 02:55:00,
2013-07-10 22:00:00,78.6,71.5,29.56,SW,227,0.0,0.0,79,0.00,,,0.00,Wunderground v.1.15,2013-07-11 03:00:00,
2013-07-10 22:05:00,78.4,71.3,29.56,SW,231,0.0,1.0,79,0.00,,,0.00,Wunderground v.1.15,2013-07-11 03:05:00,
2013-07-10 22:10:00,78.2,71.5,29.56,SW,231,0.0,1.0,80,0.00,,,0.00,Wunderground v.1.15,2013-07-11 03:10:00,
2013-07-10 22:15:00,78.0,71.7,29.57,SW,231,0.0,1.0,81,0.00,,,0.00,Wunderground v.1.15,2013-07-11 03:15:00,
2013-07-10 22:20:00,77.7,70.7,29.57,SW,231,0.0,0.0,79,0.00,,,0.00,Wunderground v.1.15,2013-07-11 03:20:00,
2013-07-10 22:25:00,77.5,70.1,29.56,SW,231,0.0,0.0,78,0.00,,,0.00,Wunderground v.1.15,2013-07-11 03:25:00,
2013-07-10 22:30:00,77.5,70.5,29.57,SW,231,0.0,0.0,79,0.00,,,0.00,Wunderground v.1.15,2013-07-11 03:30:00,
2013-07-10 22:35:00,77.8,70.0,29.56,NNW,330,1.0,2.0,77,0.00,,,0.00,Wunderground v.1.15,2013-07-11 03:35:00,
2013-07-10 22:40:00,78.2,70.0,29.56,NW,312,2.0,3.0,76,0.00,,,0.00,Wunderground v.1.15,2013-07-11 03:40:00,
2013-07-10 22:46:00,78.2,70.0,29.56,NW,313,0.0,4.0,76,0.00,,,0.00,Wunderground v.1.15,2013-07-11 03:46:00,
2013-07-10 22:51:00,78.1,69.9,29.56,NW,307,0.0,2.0,76,0.00,,,0.00,Wunderground v.1.15,2013-07-11 03:51:00,
2013-07-10 22:56:00,78.1,71.1,29.56,NW,313,2.0,5.0,79,0.00,,,0.00,Wunderground v.1.15,2013-07-11 03:56:00,
2013-07-10 23:01:00,77.9,71.2,29.56,NW,309,3.0,3.0,80,0.00,,,0.00,Wunderground v.1.15,2013-07-11 04:01:00,
2013-07-10 23:06:00,77.8,71.1,29.56,NW,304,2.0,3.0,80,0.00,,,0.00,Wunderground v.1.15,2013-07-11 04:06:00,
2013-07-10 23:11:00,77.6,70.6,29.56,NW,313,1.0,3.0,79,0.00,,,0.00,Wunderground v.1.15,2013-07-11 04:11:00,
2013-07-10 23:16:00,77.4,70.0,29.56,WNW,299,1.0,4.0,78,0.00,,,0.00,Wunderground v.1.15,2013-07-11 04:16:00,
2013-07-10 23:21:00,77.3,69.9,29.57,NW,304,3.0,3.0,78,0.00,,,0.00,Wunderground v.1.15,2013-07-11 04:21:00,
2013-07-10 23:26:00,77.3,70.3,29.57,NW,307,0.0,3.0,79,0.00,,,0.00,Wunderground v.1.15,2013-07-11 04:26:00,
2013-07-10 23:31:00,77.2,70.2,29.57,NW,316,1.0,2.0,79,0.00,,,0.00,Wunderground v.1.15,2013-07-11 04:31:00,
2013-07-10 23:36:00,77.0,70.0,29.56,NW,314,0.0,2.0,79,0.00,,,0.00,Wunderground v.1.15,2013-07-11 04:36:00,
2013-07-10 23:41:00,76.9,69.9,29.56,WNW,282,0.0,1.0,79,0.00,,,0.00,Wunderground v.1.15,2013-07-11 04:41:00,
2013-07-10 23:46:00,76.8,70.2,29.57,NW,318,0.0,2.0,80,0.00,,,0.00,Wunderground v.1.15,2013-07-11 04:46:00,
2013-07-10 23:51:00,76.6,70.0,29.57,NW,318,0.0,0.0,80,0.00,,,0.00,Wunderground v.1.15,2013-07-11 04:51:00,
2013-07-10 23:56:00,76.5,69.9,29.57,WNW,288,1.0,1.0,80,0.00,,,0.00,Wunderground v.1.15,2013-07-11 04:56:00,